Location: ??????
(55.7522°N, 37.6156°E)
Time: 12:39:21
(UTC+00:00)

USA 229 DEB - Pass Details

Date: 16 December 2025
Orbit: 844 x 1364 km, 63.4° (Epoch: 10 January)

Event Time Altitude Azimuth Distance (km) Brightness Sun altitude
Exits shadow 02:41:16 45° 306° (NW) 1,566 4.1 -25.2°
Maximum altitude 02:43:56 86° 220° (SW) 1,225 3.9 -24.8°
Drops below altitude 10° 02:52:02 10° 134° (SE) 3,326 7.0 -23.7°
Sets 02:54:59 0° 134° (SE) 4,337 7.7 -23.3°
